Weather History for Fort Worth, TX

Change the Weather History Date:

Sunday, May 19, 2013

  Actual Average Record
Temperature  
Mean Temperature 79 °F -  
Max Temperature 89 °F 83 °F 99 °F (2008)
Min Temperature 69 °F 62 °F 51 °F (2002)
Cooling Degree Days 14    
Growing Degree Days 29 (Base 50)    
Moisture  
Dew Point 69 °F    
Average Humidity 70    
Maximum Humidity 94    
Minimum Humidity 52    
Precipitation  
Precipitation 0.00 in - - ()
Sea Level Pressure  
Sea Level Pressure 29.73 in    
Wind  
Wind Speed 18 mph (South)    
Max Wind Speed 26 mph    
Max Gust Speed 37 mph    
Visibility 10 miles    
Events      
Averages and records for this station are not official NWS values.
T = Trace of Precipitation, MM = Missing Value Source: NWS Daily Summary

Daily Weather History Graph

Daily Weather History Graph

Search for Another Location

Airport:

Trip Planner

Search our weather history database for the weather conditions in past years. The results will help you decide how hot, cold, wet, or windy it might be!

Date:

Astronomy

May. 19, 2013 Rise Set
Actual Time 6:27 AM CDT 8:24 PM CDT
Civil Twilight 6:00 AM CDT 8:52 PM CDT
Nautical Twilight 5:27 AM CDT 9:25 PM CDT
Astronomical Twilight 4:51 AM CDT 10:00 PM CDT
Moon 2:48 PM CDT (5/19) 2:32 AM CDT (5/19)
Length of Visible Light 14h 51m
Length of Day
13h 56m
Waxing Gibbous, 65% of the Moon is Illuminated
May 19
Waxing Gibbous
May 24
Full
May 31
Last Quarter
Jun 8
New
Jun 16
First Quarter

Hourly Weather History & Observations

Time (CDT) Temp. Heat Index Dew Point Humidity Pressure Visibility Wind Dir Wind Speed Gust Speed Precip Events Conditions
12:53 AM 77.0 °F - 66.9 °F 71% 29.78 in 10.0 mi South 15.0 mph - N/A   Clear
1:53 AM 75.0 °F - 66.9 °F 76% 29.77 in 10.0 mi SSE 15.0 mph - N/A   Clear
2:53 AM 73.9 °F - 66.0 °F 76% 29.76 in 10.0 mi South 18.4 mph 24.2 mph N/A   Clear
3:53 AM 73.9 °F - 66.0 °F 76% 29.75 in 10.0 mi South 16.1 mph - N/A   Clear
4:53 AM 73.0 °F - 66.0 °F 79% 29.74 in 10.0 mi South 16.1 mph 25.3 mph N/A   Clear
5:53 AM 71.1 °F - 66.9 °F 87% 29.75 in 10.0 mi South 18.4 mph 27.6 mph N/A   Clear
6:43 AM 69.8 °F - 68.0 °F 94% 29.79 in 10.0 mi South 18.4 mph - N/A   Mostly Cloudy
6:53 AM 69.8 °F - 68.0 °F 94% 29.79 in 9.0 mi South 13.8 mph - N/A   Mostly Cloudy
7:53 AM 72.0 °F - 68.0 °F 87% 29.78 in 10.0 mi South 18.4 mph 27.6 mph N/A   Mostly Cloudy
8:53 AM 73.9 °F - 68.0 °F 82% 29.78 in 10.0 mi South 21.9 mph 29.9 mph N/A   Scattered Clouds
9:53 AM 77.0 °F - 68.0 °F 74% 29.78 in 10.0 mi South 25.3 mph 33.4 mph N/A   Partly Cloudy
10:53 AM 80.1 °F 82.9 °F 69.1 °F 69% 29.75 in 10.0 mi South 19.6 mph 28.8 mph N/A   Clear
11:53 AM 82.9 °F 87.0 °F 70.0 °F 65% 29.73 in 10.0 mi SSE 26.5 mph 32.2 mph N/A   Clear
12:53 PM 86.0 °F 90.7 °F 70.0 °F 59% 29.73 in 10.0 mi South 17.3 mph 29.9 mph N/A   Scattered Clouds
1:48 PM 87.8 °F 91.4 °F 68.0 °F 52% 29.77 in 10.0 mi SSE 20.7 mph 32.2 mph N/A   Mostly Cloudy
1:53 PM 86.0 °F 90.4 °F 69.8 °F 58% 29.73 in 10.0 mi South 17.3 mph 32.2 mph N/A   Mostly Cloudy
2:53 PM 84.9 °F 89.4 °F 70.0 °F 61% 29.69 in 9.0 mi South 20.7 mph 32.2 mph N/A   Mostly Cloudy
3:53 PM 88.0 °F 93.8 °F 71.1 °F 57% 29.67 in 8.0 mi South 21.9 mph 33.4 mph N/A   Mostly Cloudy
4:53 PM 89.1 °F 95.0 °F 71.1 °F 55% 29.65 in 8.0 mi South 20.7 mph 27.6 mph N/A   Clear
5:53 PM 87.1 °F 92.8 °F 71.1 °F 59% 29.64 in 8.0 mi South 18.4 mph 34.5 mph N/A   Clear
6:53 PM 86.0 °F 91.5 °F 71.1 °F 61% 29.62 in 8.0 mi South 21.9 mph 36.8 mph N/A   Clear
7:53 PM 84.9 °F 89.4 °F 70.0 °F 61% 29.64 in 10.0 mi South 25.3 mph 33.4 mph N/A   Clear
8:53 PM 82.9 °F 87.0 °F 70.0 °F 65% 29.66 in 10.0 mi SSE 19.6 mph 27.6 mph N/A   Clear
9:53 PM 82.0 °F 85.5 °F 69.1 °F 65% 29.69 in 10.0 mi SSE 17.3 mph 26.5 mph N/A   Clear
10:53 PM 80.1 °F 82.7 °F 68.0 °F 67% 29.70 in 10.0 mi South 21.9 mph 29.9 mph N/A   Clear
11:53 PM 79.0 °F - 66.9 °F 66% 29.73 in 10.0 mi South 20.7 mph 28.8 mph N/A   Clear